Location: Newark
(25.0000°N, 73.5000°E)
Time: 04:53:34
(UTC+00:00)

RS-15 - Pass Details

Date: 29 February 2020
Orbit: 1898 x 2146 km, 64.8° (Epoch: 07 April)

Event Time Altitude Azimuth Distance (km) Brightness Sun altitude
Rises 13:29:24 0° 208° (SSW) 5,410 10.9 -5.7°
Reaches altitude 10° 13:32:45 10° 209° (SSW) 4,383 10.4 -6.5°
Maximum altitude 13:43:56 78° 295° (WNW) 1,951 8.2 -9.0°
Drops below altitude 10° 13:54:53 10° 22° (NNE) 4,285 9.6 -11.5°
Sets 13:58:08 0° 24° (NNE) 5,285 10.0 -12.2°
